Theta_e
308 309 309 308 307 311 313 312 312 312 311 311 311 311 311 311 311 310 311 308 310 306 310 310 311 312 311 310 312 315 316 319 320 323 325 326 329 330 328 326 326 326 326 326 326
305 307 309 308 308 306 308 314 313 312 312 311 310 311 310 310 309 310 310 308 308 310 311 311 310 312 308 310 311 314 316 318 320 322 323 323 322 326 325 326 325 327 327 326 325
301 303 306 308 308 306 306 308 314 312 312 312 311 310 310 309 313 318 316 317 311 312 310 310 310 311 308 310 312 314 315 317 319 320 321 320 321 320 320 323 323 323 323 322 322
300 300 301 304 306 306 305 306 312 314 311 313 312 310 309 310 323 321 311 314 313 312 311 310 311 314 310 310 313 313 315 316 316 318 319 319 320 323 320 318 319 319 320 321 320
298 299 299 300 301 304 304 306 308 313 310 310 312 312 310 314 317 318 311 314 312 310 309 308 310 314 312 311 312 314 315 316 316 316 315 319 319 319 318 318 319 319 319 319 318
301 302 301 300 300 302 304 305 307 311 311 310 312 311 312 317 318 314 311 312 312 309 307 309 314 316 312 313 312 314 315 316 316 316 315 317 318 318 318 318 318 318 319 318 319
310 308 304 302 301 303 304 305 306 310 309 309 312 312 311 312 316 315 313 310 309 308 310 312 315 316 313 313 315 316 316 316 316 317 317 319 317 317 317 317 317 317 318 319 319
310 310 306 301 301 302 303 304 307 310 310 310 312 313 314 314 314 314 315 314 315 313 312 315 317 317 317 315 317 317 317 315 315 317 317 316 316 318 317 317 318 318 318 319 318
312 311 311 304 305 305 306 306 310 313 313 313 311 312 318 316 314 314 317 317 316 316 317 319 318 318 316 316 315 317 314 316 316 315 317 315 316 317 318 317 318 318 318 319 318
311 312 311 307 307 307 307 308 312 313 313 313 315 316 318 321 312 313 319 317 315 315 318 317 316 316 314 315 315 317 315 315 316 317 317 315 316 316 317 317 317 316 317 318 318
312 311 311 307 308 307 307 310 317 319 318 318 320 318 318 320 314 315 319 317 316 317 316 316 314 315 315 316 316 317 317 317 318 317 317 316 316 316 318 318 318 316 316 317 318
311 311 311 307 307 307 307 311 317 319 321 321 320 319 320 319 316 317 318 316 316 316 316 317 315 316 318 319 319 317 318 317 318 319 317 318 318 319 319 318 318 318 319 320 321
311 311 310 307 307 308 309 313 314 318 319 320 322 322 319 318 319 317 317 317 317 316 317 317 319 319 318 317 319 318 319 318 317 317 318 319 318 319 319 319 319 319 318 318 318
311 311 310 308 314 316 316 319 317 317 321 325 323 321 318 318 318 319 317 318 318 318 318 318 318 319 318 318 317 317 317 318 317 319 318 319 318 319 319 320 319 319 318 318 319
311 310 310 308 311 314 317 317 317 319 338 323 320 319 317 317 319 320 319 318 318 318 317 317 318 318 318 317 317 317 320 320 320 318 318 319 319 318 319 320 321 319 319 317 317
310 310 309 312 314 316 316 317 318 325 336 324 320 320 318 318 319 319 319 317 317 317 316 316 317 318 318 318 318 320 319 320 320 318 319 319 320 320 320 321 320 318 318 318 318
310 309 308 310 317 318 318 318 326 332 327 324 320 319 319 319 319 319 319 317 317 316 317 317 317 317 319 320 318 319 318 320 321 322 323 322 325 321 323 320 319 318 318 318 317
309 310 314 314 315 317 320 323 332 329 325 321 321 320 320 319 319 319 319 318 316 316 317 320 322 320 321 322 321 321 320 326 331 326 324 323 327 327 320 319 318 319 318 318 319
309 311 316 319 318 318 322 329 331 325 321 320 320 321 320 321 322 321 319 320 320 318 323 324 323 321 321 321 319 320 320 320 321 323 323 322 321 321 321 320 319 319 318 317 316
309 311 318 321 320 321 325 328 327 321 319 320 321 322 323 324 323 323 324 323 324 322 318 320 322 321 322 322 321 320 319 324 322 327 326 322 321 324 321 319 317 316 316 316 316
310 320 321 319 319 323 326 327 323 320 318 320 321 322 321 321 323 324 326 324 323 321 318 320 321 322 322 323 323 323 319 319 321 327 322 323 321 320 318 315 316 315 314 313 312
311 323 319 321 324 325 327 326 316 319 319 319 320 321 321 321 321 323 324 323 321 321 320 322 322 324 323 320 321 321 319 320 324 324 323 322 321 320 320 315 315 312 312 313 314
311 316 319 318 321 323 326 325 320 319 319 320 320 321 321 321 321 321 322 320 319 320 322 321 322 323 322 321 320 322 320 319 322 322 324 324 324 320 317 316 316 315 314 314 313
311 321 321 320 318 321 322 323 320 320 319 319 320 318 320 320 319 321 321 320 319 320 323 319 321 322 324 328 325 326 324 321 317 316 317 317 316 316 316 317 317 315 313 312 311
313 321 317 320 318 319 321 320 319 320 320 318 319 319 319 320 319 319 321 319 319 321 317 317 319 319 318 319 321 323 324 324 323 321 318 316 317 316 315 316 314 313 312 312 312
314 316 314 314 316 318 319 319 319 320 318 319 319 318 316 318 317 318 317 318 318 318 321 319 318 318 320 319 319 320 321 322 322 322 320 318 316 315 315 314 313 312 313 312 312
312 312 313 316 316 317 318 318 317 315 316 316 315 314 315 315 314 313 313 314 316 317 318 320 320 320 320 320 320 322 319 319 318 319 317 316 317 314 314 314 312 312 311 311 310
Wind_Speed
24 25 25 24 23 19 18 16 14 15 14 15 14 15 14 16 19 17 13 21 12 21 9 5 10 18 20 9 13 13 8 11 16 15 14 1 9 19 7 2 5 5 9 8 8
24 24 24 24 24 23 20 17 15 14 14 13 14 14 14 14 17 18 21 19 20 9 12 11 9 11 7 7 7 9 11 15 13 15 11 11 8 9 13 2 2 3 5 10 16
22 23 23 24 24 24 22 20 16 14 14 14 13 13 12 10 6 8 5 11 19 18 14 11 17 7 10 9 12 10 14 10 18 19 18 11 3 10 6 4 4 6 4 5 8
23 23 24 24 24 24 24 23 18 15 14 13 12 12 12 4 0 1 2 7 21 19 12 11 5 4 10 13 14 9 14 16 11 14 17 6 11 16 4 6 7 4 5 5 6
22 23 24 25 26 25 25 24 21 16 14 13 11 9 5 4 10 9 3 11 16 15 15 10 8 10 11 10 12 15 14 16 15 14 8 6 6 6 7 9 7 8 7 6 7
22 23 24 26 27 27 28 26 24 18 13 11 9 6 4 6 8 7 5 12 10 16 16 14 11 12 12 14 10 10 16 14 14 18 7 8 5 5 7 7 7 5 4 4 5
23 25 24 24 27 28 29 28 28 22 13 9 7 4 6 16 7 9 5 9 14 17 9 24 31 12 10 8 17 16 6 12 11 5 6 3 4 8 10 10 10 7 5 5 6
25 27 28 26 27 30 31 30 29 17 10 6 5 5 7 12 13 11 8 14 14 19 26 30 26 6 2 8 9 6 1 5 8 9 7 9 7 10 10 14 10 11 7 7 7
28 29 31 27 33 35 34 30 18 10 8 6 4 5 8 10 9 16 15 15 16 13 19 16 8 3 9 3 5 1 4 5 10 11 9 8 4 13 5 8 8 9 8 7 8
33 33 36 37 33 27 28 23 8 4 4 4 7 4 9 6 13 16 14 15 5 7 3 3 3 3 6 2 5 7 8 8 11 17 17 9 8 9 7 8 11 10 9 8 9
34 35 37 41 30 24 19 7 1 3 8 10 11 6 13 11 17 12 14 11 7 4 6 7 2 6 12 11 11 7 8 8 5 4 13 9 6 7 4 2 6 8 8 9 9
34 35 38 41 29 20 10 4 12 9 7 19 17 14 16 11 5 7 15 6 5 7 9 4 10 14 15 14 14 12 5 6 6 6 2 4 5 2 3 6 6 6 6 6 3
36 36 40 42 27 11 11 16 13 20 4 9 17 13 8 2 4 10 10 8 7 10 11 10 11 17 17 7 5 2 3 6 6 7 7 3 4 5 8 6 8 7 9 4 7
35 37 39 37 8 2 6 15 9 16 3 4 8 9 13 5 5 11 14 7 6 10 11 8 11 14 2 6 5 5 7 9 10 2 2 5 4 5 8 8 15 1 10 8 10
35 36 42 20 16 6 9 8 9 4 3 8 8 12 13 8 4 7 16 6 11 11 6 10 9 8 6 7 8 7 6 7 7 7 6 9 3 7 9 11 10 8 9 8 9
37 38 39 9 8 14 5 12 6 2 5 6 8 7 11 11 11 6 5 1 5 8 9 12 9 8 6 4 6 6 5 7 5 1 2 15 6 7 10 10 7 8 8 8 9
40 41 30 10 6 12 14 5 3 4 9 4 7 14 13 10 13 10 9 6 5 3 6 6 9 10 9 5 5 2 5 2 4 1 6 1 3 8 4 9 11 9 8 8 8
47 34 13 18 12 16 12 2 5 8 6 4 5 16 13 13 12 13 11 9 12 9 6 3 5 5 7 4 4 2 6 4 4 3 4 3 6 4 7 10 10 9 8 6 4
39 22 11 16 8 9 2 4 3 4 7 8 8 6 7 12 7 9 9 11 9 11 4 0 5 2 5 3 3 4 3 4 0 5 1 4 6 6 16 10 8 6 6 8 8
28 10 12 14 12 1 1 6 6 5 7 8 3 5 6 2 4 5 2 4 4 2 8 1 3 4 6 8 1 2 4 2 3 3 3 4 5 5 4 5 6 3 3 2 5
6 4 3 10 8 0 3 6 4 9 4 4 6 5 7 7 3 4 2 8 12 4 6 3 3 3 7 1 4 5 4 3 4 5 4 1 4 9 4 6 5 5 7 8 8
7 3 12 9 2 3 5 9 4 3 4 1 3 5 4 5 1 2 6 3 3 8 3 3 4 2 6 11 10 9 6 5 4 4 2 4 8 11 4 6 7 9 9 7 1
6 4 10 8 3 3 2 14 5 4 4 4 6 7 8 6 3 3 5 7 5 3 2 3 2 1 7 6 5 9 8 4 5 4 8 4 5 9 11 8 6 4 9 8 8
3 4 2 2 3 5 4 6 7 6 3 3 5 6 5 5 6 1 3 4 8 6 6 7 1 4 4 2 1 6 15 9 6 4 8 13 16 16 12 9 7 8 9 8 8
3 3 4 4 5 8 6 7 11 8 6 6 2 6 6 3 7 5 6 8 8 2 1 3 5 5 7 10 5 10 14 16 12 11 7 11 15 11 3 11 7 7 9 9 10
3 4 4 6 8 7 4 4 12 7 6 4 5 9 6 3 4 5 9 5 3 6 3 6 3 4 7 10 11 16 15 18 20 16 17 16 12 3 7 8 11 9 13 12 11
9 10 3 5 8 6 5 3 6 4 3 5 6 5 6 5 5 6 7 6 5 1 3 1 1 2 4 9 8 9 16 15 14 14 13 8 3 8 10 10 9 11 11 9 10
Wind_Direction
355 355 356 357 358 350 340 328 319 314 312 309 306 303 305 305 304 297 246 234 226 234 236 293 245 228 240 257 256 213 233 237 246 248 261 220 37 302 300 25 74 358 122 159 102
345 346 347 349 349 350 349 334 321 312 308 309 308 307 309 311 300 265 266 256 220 222 225 238 253 204 229 226 240 206 222 234 251 259 260 302 356 257 303 328 29 276 281 162 150
342 342 341 341 342 344 345 343 327 312 306 305 308 306 308 325 277 237 282 244 214 220 221 238 240 200 223 224 242 245 230 227 244 261 269 269 74 312 0 315 275 354 352 29 52
341 340 339 337 336 336 338 340 329 317 304 302 305 314 317 321 163 300 306 168 201 210 216 227 260 245 226 224 224 232 235 238 254 239 250 217 152 218 288 260 309 354 337 10 45
342 340 337 334 332 330 331 333 331 317 301 297 300 315 343 231 248 264 179 163 182 191 203 208 243 236 216 225 225 221 234 227 246 256 252 152 168 199 244 276 310 337 7 32 15
343 341 338 333 330 327 327 327 329 318 298 286 290 309 248 263 179 117 103 167 178 185 206 202 228 222 207 224 216 219 220 234 225 245 226 173 200 182 240 248 266 295 334 330 331
347 342 341 334 328 324 323 321 324 313 296 274 272 274 256 245 147 140 170 188 181 205 225 230 238 242 234 243 239 233 229 228 251 261 229 174 239 225 229 222 222 228 239 267 259
345 343 340 335 330 323 318 316 320 308 279 255 236 243 250 271 262 246 191 204 198 221 229 255 256 255 290 247 313 216 173 192 274 245 240 161 250 244 239 210 201 192 200 208 236
341 340 339 333 327 318 311 312 316 305 261 205 185 204 261 299 201 234 202 230 204 242 261 308 6 305 329 290 318 288 230 239 256 233 208 156 190 241 245 137 151 168 198 199 219
338 338 337 333 328 320 314 313 304 286 131 156 264 268 267 227 209 222 204 245 185 225 276 305 316 285 308 312 225 209 207 241 231 241 194 183 196 240 212 162 182 192 204 208 221
334 334 335 336 323 320 329 353 121 197 237 201 187 232 289 222 180 215 191 240 200 207 219 211 185 229 242 239 242 258 260 231 296 248 155 183 197 215 270 306 199 201 209 217 217
331 333 334 336 322 314 300 246 263 304 271 223 246 224 260 297 165 198 190 189 241 230 218 250 224 237 242 244 236 248 285 322 327 344 101 178 206 215 312 275 251 239 245 226 155
330 333 334 335 327 290 213 232 277 306 298 276 206 228 223 112 277 194 183 207 231 227 248 220 237 226 246 275 326 12 345 312 296 313 349 84 348 317 272 256 246 240 213 190 107
331 332 337 337 322 315 233 297 263 276 302 213 174 216 199 153 261 255 188 208 225 241 237 249 262 266 197 314 317 321 263 257 259 359 276 41 276 289 274 263 235 309 81 92 82
331 332 334 336 293 279 347 339 342 8 285 180 154 150 160 173 171 214 187 195 253 273 338 290 312 321 234 201 216 234 58 32 10 5 28 323 350 267 261 261 92 87 84 81 84
332 329 331 325 268 262 285 314 306 259 254 192 140 188 151 205 240 136 143 229 290 284 282 275 309 296 306 222 223 82 53 13 346 354 332 249 204 266 263 147 120 102 97 89 80
330 325 316 263 237 327 322 317 254 242 157 210 168 162 183 201 227 164 177 184 213 194 260 288 271 281 315 343 318 121 86 344 331 252 219 322 292 231 187 122 124 117 98 95 92
331 326 298 253 265 289 313 300 242 301 130 285 159 168 186 207 216 187 176 202 214 240 285 275 312 263 35 53 17 340 126 141 235 239 286 307 205 242 145 104 92 96 108 110 141
332 330 278 260 244 275 345 259 236 271 8 358 330 297 234 210 184 215 196 210 196 190 192 116 269 310 252 290 75 1 58 127 298 250 321 256 301 351 109 103 111 142 172 199 212
332 306 268 255 213 187 241 265 284 78 27 325 291 353 348 97 226 356 93 346 311 123 116 97 351 341 336 312 59 282 299 34 346 4 272 272 260 126 90 100 84 31 298 250 243
305 287 174 164 166 152 226 249 257 107 84 336 360 336 346 346 46 297 60 326 333 335 116 98 115 290 11 283 185 280 236 198 165 150 201 321 269 123 134 151 186 234 236 241 253
310 269 168 174 149 222 242 286 297 320 157 219 262 277 281 358 356 9 1 47 313 330 338 35 126 272 243 265 235 233 236 197 150 258 251 185 249 334 320 228 208 234 233 242 305
309 273 236 204 238 245 325 279 273 187 247 21 356 8 7 348 351 12 20 43 43 312 357 4 178 311 318 269 247 230 239 235 155 146 228 228 264 290 285 288 291 5 47 44 38
285 293 200 193 260 278 323 299 325 110 102 82 20 357 327 337 348 275 304 45 43 40 93 79 327 189 207 149 350 328 323 284 206 183 236 251 267 271 271 272 49 34 42 30 21
246 275 356 335 332 334 344 326 313 314 66 86 303 73 55 344 346 333 10 21 2 159 11 131 213 238 261 275 229 229 247 277 276 272 233 241 245 261 341 68 55 48 24 11 21
295 349 342 301 290 276 293 266 284 46 27 57 35 30 37 337 323 327 349 3 301 7 35 12 303 290 283 286 280 271 249 227 254 259 270 270 271 27 63 53 34 19 38 26 8
344 336 314 298 306 318 278 55 68 77 19 68 54 40 351 339 12 314 298 289 281 254 7 74 276 17 260 266 326 288 247 247 251 246 267 269 50 51 34 29 21 49 31 7 344